Location: Newark
(3.0500°N, 36.0167°E)
Time: 13:48:33
(UTC+00:00)

Transit 2A Rocket - Pass Details

Date: 22 August 2019
Orbit: 592 x 911 km, 66.7° (Epoch: 19 September)

Event Time Altitude Azimuth Distance (km) Brightness Sun altitude
Rises 03:32:33 0° 331° (NNW) 2,817 7.8 -0.9°
Reaches altitude 10° 03:34:49 10° 326° (NW) 1,912 6.9 -0.4°
Maximum altitude 03:38:57 50° 250° (WSW) 757 4.7 0.6°
Drops below altitude 10° 03:43:11 10° 174° (S) 1,963 7.1 1.6°
Sets 03:45:33 0° 169° (S) 2,901 8.0 2.2°
